Torna al catalogo

STARLINK-35553

AttivoComunicazioniVLEO
NORAD 66120·PAYLOAD·🇺🇸 United States

Lanciato Oct 22, 2025 da Vandenberg Space Force Base

Loading…

Prossimi Passaggi (prossime 24 ore)

TLE

AggiornatoSource: CelesTrak SupGP

Epoca: Sep 14, 2026, 22:43 UTC

1 66120C 25237G   26257.94701389  .00031688  00000+0  93605-3 0  2575
2 66120  53.1576 237.3125 0001298  90.2805 220.9345 15.34380331    18

Traccia STARLINK-35553 in tempo reale con AllMySat

Download on the App Store